Home   Weather   Homburg (Saar)   Past weeks

Flag for Germany Past Weather in Homburg (Saar), Saarland, Germany — Yesterday and Last 2 Weeks

54 °F

Passing clouds.

Feels Like: 53 °F
Forecast: 36 / 56 °F
Wind: 3 mph from North

Location: Saarbruecken / Ensheim

Current Time: Oct 26, 2016 at 1:18:58 PM

Latest Report: Oct 26, 2016 at 12:50 PM

Visibility: N/A

Pressure: 30.36 "Hg

Humidity: 77%

Dew Point: 46 °F

Location of Homburg (Saar)Location

Past Weather in Homburg (Saar) — Graph


Homburg (Saar) Temperature Yesterday

Maximum temperature yesterday: 54 °F (at 12:20 PM)
Minimum temperature yesterday: 48 °F (at 9:20 PM)
Average temperature yesterday: 51 °F

High & Low Weather Summary for the Past Weeks

High64 °F (Oct 16, 2:20 PM)100% (Oct 14, 9:50 PM)30.36 "Hg (Oct 14, 9:50 PM)
Low36 °F (Oct 21, 10:50 PM)51% (Oct 11, 3:50 PM)29.65 "Hg (Oct 14, 4:50 PM)
Average48 °F88%30.01 "Hg
* Reported Oct 11 12:20 PM — Oct 26 12:20 PM, Homburg (Saar), Weather by CustomWeather, © 2016

Note: Actual official high and low records may vary slightly from our data, if they occured in-between our weather recording intervals... More about our weather records


Homburg (Saar) Weather History for the Previous 24 Hours

Scroll right to see more
Time TempWeatherWind HumidityBarometerVisibility
12:20 PM
Wed, Oct 26
52 °FPassing clouds.6 mph82%30.36 "HgN/A
11:50 AM52 °FScattered clouds.3 mph82%30.36 "Hg6 mi
11:20 AM50 °FPartly sunny.6 mph88%30.36 "Hg5 mi
10:50 AM50 °FScattered clouds.6 mph82%30.36 "Hg4 mi
10:20 AM48 °FFog.6 mph87%30.36 "Hg3 mi
9:50 AM45 °FFog.5 mph100%30.36 "Hg1 mi
9:20 AM45 °FFog.3 mph93%30.33 "Hg1 mi
8:50 AM43 °FFog.5 mph100%30.33 "Hg1 mi
8:20 AM45 °FFog.5 mph100%30.33 "Hg0 mi
7:50 AM45 °FFog.8 mph93%30.30 "Hg1 mi
7:20 AM45 °FFog.5 mph100%30.30 "Hg0 mi
6:50 AM45 °FFog.5 mph100%30.30 "Hg0 mi
6:20 AM45 °FFog.2 mph100%30.30 "Hg0 mi
5:50 AM43 °FFog.3 mph100%30.30 "Hg0 mi
5:20 AM45 °FFog.2 mph100%30.30 "Hg0 mi
4:50 AM45 °FFog.3 mph100%30.30 "Hg0 mi
4:20 AM46 °FPassing clouds.3 mph93%30.30 "Hg1 mi
3:50 AM46 °FPassing clouds.5 mph100%30.30 "HgN/A
3:20 AM46 °FOvercast.2 mph100%30.30 "Hg6 mi
2:50 AM46 °FOvercast.5 mph100%30.30 "Hg3 mi
2:20 AM48 °FPassing clouds.2 mph94%30.30 "Hg3 mi
1:50 AM48 °FOvercast.2 mph94%30.30 "Hg6 mi
1:20 AM48 °FOvercast.2 mph94%30.30 "HgN/A
12:50 AM48 °FOvercast.2 mph94%30.30 "HgN/A
12:20 AM48 °FOvercast.2 mph94%30.30 "HgN/A
11:50 PM
Tue, Oct 25
48 °FOvercast.1 mph94%30.30 "Hg5 mi
11:20 PM48 °FOvercast.1 mph94%30.30 "HgN/A
10:50 PM48 °FPassing clouds.2 mph94%30.27 "HgN/A
10:20 PM48 °FPassing clouds.2 mph94%30.27 "HgN/A
9:50 PM48 °FPassing clouds.1 mph94%30.27 "HgN/A
9:20 PM48 °FPassing clouds.2 mph94%30.27 "HgN/A
8:50 PM50 °FPassing clouds.2 mph88%30.27 "HgN/A
8:20 PM50 °FPassing clouds.3 mph88%30.27 "HgN/A
7:50 PM50 °FPassing clouds.2 mph82%30.27 "HgN/A
7:20 PM50 °FPassing clouds.2 mph88%30.24 "HgN/A
6:50 PM52 °FPassing clouds.3 mph82%30.24 "HgN/A
6:20 PM52 °FPartly sunny.6 mph82%30.24 "HgN/A
5:50 PM52 °FPartly sunny.3 mph82%30.24 "HgN/A
5:20 PM52 °FPartly sunny.5 mph82%30.24 "HgN/A
4:50 PM52 °FPartly sunny.6 mph88%30.21 "HgN/A
4:20 PM52 °FPartly sunny.5 mph88%30.21 "HgN/A
3:50 PM52 °FPartly sunny.3 mph88%30.21 "HgN/A
3:20 PM52 °FPartly sunny.3 mph88%30.21 "HgN/A
2:50 PM54 °FPartly sunny.3 mph82%30.21 "HgN/A
2:20 PM54 °FPartly sunny.5 mph82%30.21 "HgN/A
1:50 PM54 °FPartly sunny.3 mph82%30.18 "HgN/A
1:20 PM54 °FPartly sunny.5 mph82%30.18 "HgN/A
Weather by CustomWeather, © 2016

See weather overviewHow to use our weather pages